This demonstration page uses our WeatherBlox Daily Observations layout. Learn more.

Left ArrowRight Arrow

Hourly Observations for July 5, 2018

Temp ( °F °C ) Dew Point ( °F °C ) Humidity (%) Winds ( mph kmh ) Pressure ( in mb ) Visibility ( mi km ) Precip ( " mm )
12:53 am 00:53 Clear 55 12.8 49 9.4 80 80 NE 5 7 30.35 1028 10 16 0.00 0.00
1:53 am 01:53 Clear 54 12.2 49 9.4 83 83 E 9 15 30.35 1028 10 16 0.00 0.00
2:53 am 02:53 Clear 54 12.2 48 8.9 80 80 ENE 10 17 30.35 1028 10 16 0.00 0.00
3:53 am 03:53 Clear 54 12.2 48 8.9 80 80 E 9 15 30.35 1028 10 16 0.00 0.00
4:53 am 04:53 Clear 53 11.7 47 8.3 80 80 E 9 15 30.35 1028 10 16 0.00 0.00
5:53 am 05:53 Sunny 51 10.6 48 8.9 89 89 E 9 15 30.36 1028 10 16 0.00 0.00
6:53 am 06:53 Sunny 54 12.2 49 9.4 83 83 ENE 12 19 30.35 1028 10 16 0.00 0.00
7:53 am 07:53 Sunny 60 15.6 51 10.6 72 72 ENE 9 15 30.34 1028 10 16 0.00 0.00
8:53 am 08:53 Sunny 68 20 53 11.7 59 59 E 14 22 30.33 1027 10 16 0.00 0.00
9:53 am 09:53 Sunny 74 23.3 49 9.4 41 41 ESE 14 22 30.31 1027 10 16 0.00 0.00
10:53 am 10:53 Sunny 77 25 49 9.4 37 37 ESE 15 24 30.29 1026 10 16 0.00 0.00
11:53 am 11:53 Sunny 80 26.7 47 8.3 31 31 SE 13 20 30.26 1025 10 16 0.00 0.00
12:53 pm 12:53 Sunny 82 27.8 48 8.9 31 31 E 14 22 30.24 1024 10 16 0.00 0.00
1:53 pm 13:53 Sunny 83 28.3 49 9.4 31 31 SE 9 15 30.22 1023 10 16 0.00 0.00
2:53 pm 14:53 Sunny 86 30 50 10 29 29 SSE 10 17 30.20 1023 10 16 0.00 0.00
3:53 pm 15:53 Sunny 87 30.6 52 11.1 30 30 ESE 12 19 30.17 1022 10 16 0.00 0.00
4:53 pm 16:53 Sunny 88 31.1 53 11.7 30 30 SE 14 22 30.14 1021 10 16 0.00 0.00
5:53 pm 17:53 Sunny 88 31.1 54 12.2 31 31 SE 13 20 30.12 1020 10 16 0.00 0.00
6:53 pm 18:53 Sunny 87 30.6 57 13.9 36 36 ESE 17 28 30.10 1019 10 16 0.00 0.00
7:53 pm 19:53 Sunny 84 28.9 58 14.4 41 41 ESE 15 24 30.09 1019 10 16 0.00 0.00
8:53 pm 20:53 Sunny 81 27.2 59 15 47 47 ESE 16 26 30.08 1019 10 16 0.00 0.00
9:53 pm 21:53 Clear 77 25 60 15.6 56 56 E 13 20 30.09 1019 10 16 0.00 0.00
10:53 pm 22:53 Clear 71 21.7 61 16.1 71 71 E 12 19 30.09 1019 10 16 0.00 0.00
11:53 pm 23:53 Clear 71 21.7 61 16.1 71 71 ENE 13 20 30.07 1018 10 16 0.00 0.00

Powered by AerisWeather